Overview Statistics Trail Chart Weather Telemetry Raw packets
 

This is the latest recevied weather packets stored in our database for station/object KY0TEQ-13. If no packets are shown the sender has not sent any weather packets the latest 10 day(s).

<< 49 50 51 52 53 54 55 >>
Time Temp. Humidity Pressure Rain* Wind** Luminosity Snow
1788349278 11.67° C 57% 1310.1 hPa 0 mm - 0 W/m² -
1788348973 11.67° C 57% 1310.2 hPa 0 mm - 0 W/m² -
1788348668 11.11° C 59% 1310.2 hPa 0 mm - 0 W/m² -
1788348363 11.11° C 60% 1310.1 hPa 0 mm - 0 W/m² -
1788348060 11.11° C 60% 1310.1 hPa 0 mm - 0 W/m² -
1788347756 11.11° C 61% 1310.1 hPa 0 mm - 0 W/m² -
1788347451 11.67° C 59% 1310.1 hPa 0 mm - 0 W/m² -
1788347147 11.67° C 58% 1310 hPa 0 mm - 0 W/m² -
1788346843 11.67° C 58% 1310.1 hPa 0 mm - 0 W/m² -
1788346537 11.67° C 58% 1310.2 hPa 0 mm - 0 W/m² -
1788346231 11.67° C 58% 1310.2 hPa 0 mm - 0 W/m² -
1788345927 11.67° C 59% 1310.4 hPa 0 mm - 0 W/m² -
1788345621 11.67° C 61% 1310.2 hPa 0 mm - 0 W/m² -
1788345317 11.67° C 60% 1310.2 hPa 0 mm - 0 W/m² -
1788345012 12.78° C 58% 1310.1 hPa 0 mm - 0 W/m² -
1788344709 13.89° C 51% 1310 hPa 0 mm - 0 W/m² -
1788344405 13.89° C 51% 1310.1 hPa 0 mm - 0 W/m² -
1788344100 12.78° C 51% 1310 hPa 0 mm - 0 W/m² -
1788343799 13.33° C 56% 1310.1 hPa 0 mm - 0 W/m² -
1788343494 12.22° C 55% 1310 hPa 0 mm - 0 W/m² -
1788343193 12.22° C 55% 1310 hPa 0 mm - 0 W/m² -
1788342889 12.22° C 56% 1310.1 hPa 0 mm - 0 W/m² -
1788342587 12.22° C 55% 1310 hPa 0 mm - 0 W/m² -
1788342283 11.67° C 55% 1310.1 hPa 0 mm - 0 W/m² -
1788341978 11.67° C 56% 1310.1 hPa 0 mm - 0 W/m² -

* Rain latest hour (hover to see other rain measurements)
** Current wind speed in m/s (hover to see current wind gust speed)